Location: B?ezina
(49.8085°N, 13.6013°E)
Time: 01:59:18
(UTC+00:00)

ASTEX 1 - Pass Details

Date: 19 May 2025
Orbit: 714 x 734 km, 92.7° (Epoch: 23 June)

Event Time Altitude Azimuth Distance (km) Brightness Sun altitude
Rises 23:17:18 0° 4° (N) 3,163 8.3 -20.1°
Reaches altitude 10° 23:19:36 10° 2° (N) 2,240 7.1 -20.1°
Maximum altitude 23:24:33 74° 279° (W) 767 3.4 -20.0°
Enters shadow 23:26:13 41° 205° (SSW) 1,050 3.7 -20.0°
